Location: Newark
(9.4667°S, 159.8167°E)
Time: 16:55:11
(UTC+00:00)

Tiangong 2 - Visible Passes

Search period start: 19 March 2019 00:00
Search period end: 29 March 2019 00:00
Orbit: 379 x 390 km, 42.8° (Epoch: 18 March)

Date Brightness Start Highest point End Pass type
(mag) Time Alt. Az. Time Alt. Az. Time Alt. Az.
22 Mar 1.6 08:43:13 10° SW 08:45:49 47° S 08:45:49 47° S visible
23 Mar 4.3 09:21:21 10° W 09:22:16 14° WNW 09:22:16 14° WNW visible
24 Mar 2.1 08:20:59 10° WSW 08:24:01 44° NW 08:26:34 13° NNE visible
26 Mar 3.9 07:59:32 10° W 08:01:37 16° NW 08:03:42 10° N visible
